sat.trackr.live / text

‹ back to catalog

STARLINK-1667

NORAD 46155 · 2020-057AQ

PAYLOAD ACTIVE UNKNOWN

§ Identity

Operator
Country
US
Launch date
2020-08-18
Launch site
AFETR
Launch vehicle
Mass (kg)
RCS (m²)

Purposes: comms

External: N2YO · Heavens-Above · Gunter

§ Orbital elements

Epoch: 2026-07-03T21:32:08.887776Z

Period
87.97 min
Inclination
52.9948°
Eccentricity
0.0012793
Mean motion
16.36899098 rev/d
Perigee alt
165.7 km
Apogee alt
182.4 km
Semi-major
6,552.2 km
B*
6.9923e-4
RAAN
359.8183°
Arg perigee
282.1188°
Mean anomaly
77.8423°
Rev number
32,698

§ Raw data

STARLINK-16671 46155U 20057AQ  26184.89732509  .06909011  12312-4  69923-3 0  99902 46155  52.9948 359.8183 0012793 282.1188  77.8423 16.36899098326987

JSON: /api/v1/satellites/46155 · /tle

For live sub-satellite position, see the globe view (requires WebGL).

§ Visibility from observer

Set your observer location to see the next 7 days of passes ≥ 10°. The values pass through the URL so the page stays shareable.

No JS? Fill the form by hand. The geolocation button needs JavaScript.